Time,TemperatureF,DewpointF,PressureIn,WindDirection,WindDirectionDegrees,WindSpeedMPH,WindSpeedGustMPH,Humidity,HourlyPrecipIn,Conditions,Clouds,dailyrainin,SoftwareType,DateUTC
2013-03-05 00:02:00,53.0,50.0,30.05,East,97,0.0,3.0,90,0.00,,,0.00,,2013-03-05 08:02:00,
2013-03-05 00:11:00,53.0,50.0,30.05,East,97,0.0,3.0,90,0.00,,,0.00,,2013-03-05 08:11:00,
2013-03-05 00:21:00,53.0,50.0,30.06,East,96,0.0,3.0,91,0.00,,,0.00,,2013-03-05 08:21:00,
2013-03-05 00:31:00,53.0,50.0,30.06,ESE,110,0.0,5.0,91,0.00,,,0.00,,2013-03-05 08:31:00,
2013-03-05 00:41:00,53.0,50.0,30.06,ESE,110,0.0,5.0,91,0.00,,,0.00,,2013-03-05 08:41:00,
2013-03-05 00:51:00,53.0,50.0,30.06,West,264,2.0,4.0,91,0.00,,,0.00,,2013-03-05 08:51:00,
2013-03-05 01:01:00,53.0,50.0,30.06,SSE,155,1.0,3.0,90,0.00,,,0.00,,2013-03-05 09:01:00,
2013-03-05 01:11:00,53.0,50.0,30.06,SSE,155,1.0,3.0,90,0.00,,,0.00,,2013-03-05 09:11:00,
2013-03-05 01:21:00,53.0,50.0,30.06,SSE,154,0.0,3.0,91,0.00,,,0.00,,2013-03-05 09:21:00,
2013-03-05 01:31:00,53.0,50.0,30.05,SSE,154,0.0,2.0,91,0.00,,,0.00,,2013-03-05 09:31:00,
2013-03-05 01:42:00,53.0,50.0,30.05,SSE,154,0.0,2.0,91,0.00,,,0.00,,2013-03-05 09:42:00,
2013-03-05 01:51:00,53.0,50.0,30.05,SSE,154,0.0,2.0,91,0.00,,,0.00,,2013-03-05 09:51:00,
2013-03-05 02:01:00,53.0,50.0,30.04,SSE,153,0.0,1.0,91,0.00,,,0.00,,2013-03-05 10:01:00,
2013-03-05 02:11:00,53.0,50.0,30.04,SSE,153,0.0,1.0,91,0.00,,,0.00,,2013-03-05 10:11:00,
2013-03-05 02:21:00,53.0,50.0,30.04,SSW,196,0.0,3.0,91,0.00,,,0.00,,2013-03-05 10:21:00,
2013-03-05 02:32:00,53.0,50.0,30.03,SE,134,2.0,4.0,91,0.00,,,0.00,,2013-03-05 10:32:00,
2013-03-05 02:41:00,53.0,50.0,30.03,SE,134,2.0,4.0,91,0.00,,,0.00,,2013-03-05 10:41:00,
2013-03-05 02:51:00,53.0,50.0,30.03,SE,135,1.0,3.0,91,0.00,,,0.00,,2013-03-05 10:51:00,
2013-03-05 03:01:00,53.0,50.0,30.03,South,171,3.0,7.0,91,0.00,,,0.00,,2013-03-05 11:01:00,
2013-03-05 03:11:00,53.0,50.0,30.03,South,171,3.0,7.0,91,0.00,,,0.00,,2013-03-05 11:11:00,
2013-03-05 03:21:00,53.0,50.0,30.03,South,171,3.0,7.0,91,0.00,,,0.00,,2013-03-05 11:21:00,
2013-03-05 03:32:00,53.0,50.0,30.04,South,173,0.0,7.0,91,0.00,,,0.00,,2013-03-05 11:32:00,
2013-03-05 03:42:00,53.0,50.0,30.04,South,173,0.0,7.0,91,0.00,,,0.00,,2013-03-05 11:42:00,
2013-03-05 03:52:00,53.0,50.0,30.04,South,171,0.0,3.0,91,0.00,,,0.00,,2013-03-05 11:52:00,
2013-03-05 04:02:00,53.0,50.0,30.04,South,171,0.0,2.0,91,0.00,,,0.00,,2013-03-05 12:02:00,
2013-03-05 04:11:00,53.0,50.0,30.04,South,171,0.0,2.0,91,0.00,,,0.00,,2013-03-05 12:11:00,
2013-03-05 04:22:00,53.0,50.0,30.05,ESE,121,1.0,4.0,91,0.00,,,0.00,,2013-03-05 12:22:00,
2013-03-05 04:32:00,53.0,50.0,30.04,East,97,2.0,3.0,91,0.00,,,0.00,,2013-03-05 12:32:00,
2013-03-05 04:42:00,53.0,50.0,30.04,East,97,2.0,3.0,91,0.00,,,0.00,,2013-03-05 12:42:00,
2013-03-05 04:52:00,52.0,49.0,30.04,ENE,59,2.0,4.0,91,0.00,,,0.00,,2013-03-05 12:52:00,
2013-03-05 05:01:00,52.0,49.0,30.04,NE,46,2.0,5.0,90,0.00,,,0.00,,2013-03-05 13:01:00,
2013-03-05 05:11:00,52.0,49.0,30.04,NE,46,2.0,5.0,90,0.00,,,0.00,,2013-03-05 13:11:00,
2013-03-05 05:21:00,52.0,49.0,30.04,ENE,60,2.0,4.0,91,0.00,,,0.00,,2013-03-05 13:21:00,
2013-03-05 05:31:00,52.0,49.0,30.04,East,85,2.0,5.0,91,0.00,,,0.00,,2013-03-05 13:31:00,
2013-03-05 05:42:00,52.0,49.0,30.04,East,85,2.0,5.0,91,0.00,,,0.00,,2013-03-05 13:42:00,
2013-03-05 05:52:00,52.0,50.0,30.04,East,101,1.0,5.0,92,0.00,,,0.00,,2013-03-05 13:52:00,
2013-03-05 06:02:00,52.0,50.0,30.04,East,100,0.0,3.0,93,0.00,,,0.00,,2013-03-05 14:02:00,
2013-03-05 06:11:00,52.0,50.0,30.04,East,100,0.0,3.0,93,0.00,,,0.00,,2013-03-05 14:11:00,
2013-03-05 06:21:00,52.0,50.0,30.05,East,100,0.0,1.0,92,0.00,,,0.00,,2013-03-05 14:21:00,
2013-03-05 06:31:00,52.0,50.0,30.05,East,101,0.0,2.0,92,0.00,,,0.00,,2013-03-05 14:31:00,
2013-03-05 06:42:00,52.0,50.0,30.05,East,101,0.0,2.0,92,0.00,,,0.00,,2013-03-05 14:42:00,
2013-03-05 06:52:00,52.0,49.0,30.05,East,100,1.0,3.0,91,0.00,,,0.00,,2013-03-05 14:52:00,
2013-03-05 07:01:00,53.0,50.0,30.06,East,91,1.0,3.0,91,0.00,,,0.00,,2013-03-05 15:01:00,
2013-03-05 07:11:00,53.0,50.0,30.06,East,91,1.0,3.0,91,0.00,,,0.00,,2013-03-05 15:11:00,
2013-03-05 07:21:00,53.0,50.0,30.06,North,11,2.0,5.0,91,0.00,,,0.00,,2013-03-05 15:21:00,
2013-03-05 07:32:00,53.0,50.0,30.05,NNE,22,3.0,6.0,91,0.00,,,0.00,,2013-03-05 15:32:00,
2013-03-05 07:42:00,53.0,50.0,30.05,NNE,22,3.0,6.0,91,0.00,,,0.00,,2013-03-05 15:42:00,
2013-03-05 07:51:00,53.0,50.0,30.05,NE,37,3.0,6.0,91,0.00,,,0.00,,2013-03-05 15:51:00,
2013-03-05 08:01:00,53.0,50.0,30.05,NNE,22,3.0,6.0,91,0.00,,,0.00,,2013-03-05 16:01:00,
2013-03-05 08:11:00,53.0,50.0,30.05,NNE,22,3.0,6.0,91,0.00,,,0.00,,2013-03-05 16:11:00,
2013-03-05 08:21:00,53.0,50.0,30.05,NE,36,3.0,6.0,90,0.00,,,0.00,,2013-03-05 16:21:00,
2013-03-05 08:32:00,54.0,51.0,30.05,NNE,20,2.0,4.0,89,0.00,,,0.00,,2013-03-05 16:32:00,
2013-03-05 08:41:00,54.0,51.0,30.05,NNE,20,2.0,4.0,89,0.00,,,0.00,,2013-03-05 16:41:00,
2013-03-05 08:51:00,53.0,50.0,30.05,SSE,154,1.0,3.0,90,0.00,,,0.00,,2013-03-05 16:51:00,
2013-03-05 09:01:00,53.0,50.0,30.05,SSE,154,1.0,3.0,90,0.00,,,0.00,,2013-03-05 17:01:00,
2013-03-05 09:11:00,53.0,50.0,30.05,SSE,154,1.0,3.0,90,0.00,,,0.00,,2013-03-05 17:11:00,
2013-03-05 09:21:00,53.0,50.0,30.06,South,178,2.0,5.0,90,0.00,,,0.00,,2013-03-05 17:21:00,
2013-03-05 09:32:00,53.0,50.0,30.06,South,186,1.0,9.0,89,0.00,,,0.00,,2013-03-05 17:32:00,
2013-03-05 09:41:00,53.0,50.0,30.06,South,186,1.0,9.0,89,0.00,,,0.00,,2013-03-05 17:41:00,
2013-03-05 09:52:00,55.0,52.0,30.06,SSW,207,0.0,3.0,88,0.00,,,0.00,,2013-03-05 17:52:00,
2013-03-05 10:01:00,55.0,51.0,30.06,WSW,252,3.0,6.0,87,0.00,,,0.00,,2013-03-05 18:01:00,
2013-03-05 10:11:00,55.0,51.0,30.06,WSW,252,3.0,6.0,87,0.00,,,0.00,,2013-03-05 18:11:00,
2013-03-05 10:21:00,55.0,51.0,30.07,WSW,242,1.0,7.0,86,0.00,,,0.00,,2013-03-05 18:21:00,
2013-03-05 10:32:00,56.0,52.0,30.07,WNW,291,3.0,5.0,85,0.00,,,0.00,,2013-03-05 18:32:00,
2013-03-05 10:41:00,56.0,52.0,30.07,WNW,291,3.0,5.0,85,0.00,,,0.00,,2013-03-05 18:41:00,
2013-03-05 10:52:00,56.0,51.0,30.07,WNW,297,1.0,3.0,84,0.00,,,0.00,,2013-03-05 18:52:00,
2013-03-05 11:01:00,56.0,52.0,30.07,WSW,240,1.0,5.0,85,0.00,,,0.00,,2013-03-05 19:01:00,
2013-03-05 11:11:00,56.0,52.0,30.07,WSW,240,1.0,5.0,85,0.00,,,0.00,,2013-03-05 19:11:00,
2013-03-05 11:21:00,56.0,52.0,30.07,WSW,252,1.0,4.0,85,0.00,,,0.00,,2013-03-05 19:21:00,
2013-03-05 11:31:00,56.0,52.0,30.07,SSW,204,1.0,5.0,85,0.00,,,0.00,,2013-03-05 19:31:00,
2013-03-05 11:41:00,56.0,52.0,30.07,SSW,204,1.0,5.0,85,0.00,,,0.00,,2013-03-05 19:41:00,
2013-03-05 11:51:00,57.0,52.0,30.07,WNW,294,2.0,5.0,83,0.00,,,0.00,,2013-03-05 19:51:00,
2013-03-05 12:01:00,56.0,51.0,30.06,WSW,254,3.0,5.0,84,0.00,,,0.00,,2013-03-05 20:01:00,
2013-03-05 12:11:00,57.0,52.0,30.06,West,259,2.0,6.0,84,0.00,,,0.00,,2013-03-05 20:11:00,
2013-03-05 12:21:00,57.0,52.0,30.06,West,259,2.0,6.0,84,0.00,,,0.00,,2013-03-05 20:21:00,
2013-03-05 12:32:00,57.0,52.0,30.05,WSW,250,0.0,3.0,84,0.00,,,0.00,,2013-03-05 20:32:00,
2013-03-05 12:41:00,57.0,52.0,30.05,WSW,250,0.0,3.0,84,0.00,,,0.00,,2013-03-05 20:41:00,
2013-03-05 12:52:00,57.0,52.0,30.04,West,265,2.0,5.0,83,0.00,,,0.00,,2013-03-05 20:52:00,
2013-03-05 13:01:00,58.0,53.0,30.04,West,269,0.0,3.0,82,0.00,,,0.00,,2013-03-05 21:01:00,
2013-03-05 13:11:00,58.0,53.0,30.04,West,269,0.0,3.0,82,0.00,,,0.00,,2013-03-05 21:11:00,
2013-03-05 13:21:00,58.0,52.0,30.03,West,271,0.0,4.0,81,0.00,,,0.00,,2013-03-05 21:21:00,
2013-03-05 13:31:00,58.0,52.0,30.02,West,263,1.0,5.0,80,0.00,,,0.00,,2013-03-05 21:31:00,
2013-03-05 13:41:00,58.0,52.0,30.02,West,263,1.0,5.0,80,0.00,,,0.00,,2013-03-05 21:41:00,
2013-03-05 13:52:00,59.0,52.0,30.02,WSW,255,3.0,6.0,79,0.00,,,0.00,,2013-03-05 21:52:00,
2013-03-05 14:01:00,58.0,52.0,30.01,SSW,194,3.0,8.0,80,0.00,,,0.00,,2013-03-05 22:01:00,
2013-03-05 14:11:00,58.0,52.0,30.01,SSW,194,3.0,8.0,80,0.00,,,0.00,,2013-03-05 22:11:00,
2013-03-05 14:21:00,58.0,52.0,30.01,SSW,194,3.0,8.0,80,0.00,,,0.00,,2013-03-05 22:21:00,
2013-03-05 14:32:00,57.0,51.0,30.01,WSW,242,4.0,9.0,80,0.00,,,0.00,,2013-03-05 22:32:00,
2013-03-05 14:42:00,57.0,51.0,30.01,WSW,242,4.0,9.0,80,0.00,,,0.00,,2013-03-05 22:42:00,
2013-03-05 14:52:00,59.0,52.0,30.01,South,188,6.0,11.0,78,0.00,,,0.00,,2013-03-05 22:52:00,
2013-03-05 15:01:00,58.0,51.0,30.01,WSW,239,5.0,11.0,78,0.00,,,0.00,,2013-03-05 23:01:00,
2013-03-05 15:11:00,58.0,51.0,30.01,WSW,239,5.0,11.0,78,0.00,,,0.00,,2013-03-05 23:11:00,
2013-03-05 15:21:00,57.0,52.0,30.01,WSW,251,5.0,12.0,83,0.00,,,0.00,,2013-03-05 23:21:00,
2013-03-05 15:32:00,57.0,52.0,30.01,WSW,242,6.0,9.0,82,0.00,,,0.00,,2013-03-05 23:32:00,
2013-03-05 15:41:00,57.0,52.0,30.01,WSW,242,6.0,9.0,82,0.00,,,0.00,,2013-03-05 23:41:00,
2013-03-05 15:52:00,56.0,51.0,30.01,West,260,4.0,9.0,83,0.00,,,0.00,,2013-03-05 23:52:00,
2013-03-05 16:01:00,56.0,51.0,30.01,WSW,243,5.0,9.0,83,0.00,,,0.00,,2013-03-06 00:01:00,
2013-03-05 16:11:00,56.0,51.0,30.01,WSW,243,5.0,9.0,83,0.00,,,0.00,,2013-03-06 00:11:00,
2013-03-05 16:21:00,56.0,51.0,30.01,WSW,252,4.0,8.0,83,0.00,,,0.00,,2013-03-06 00:21:00,
2013-03-05 16:32:00,55.0,50.0,30.01,SSW,197,4.0,9.0,84,0.00,,,0.00,,2013-03-06 00:32:00,
2013-03-05 16:41:00,55.0,50.0,30.01,SSW,197,4.0,9.0,84,0.00,,,0.00,,2013-03-06 00:41:00,
2013-03-05 16:51:00,55.0,51.0,30.01,SSW,207,2.0,9.0,85,0.00,,,0.00,,2013-03-06 00:51:00,
2013-03-05 17:01:00,54.0,50.0,30.01,SSW,199,3.0,9.0,85,0.00,,,0.00,,2013-03-06 01:01:00,
2013-03-05 17:11:00,54.0,50.0,30.01,SSW,199,3.0,9.0,85,0.00,,,0.00,,2013-03-06 01:11:00,
2013-03-05 17:21:00,54.0,49.0,30.01,SW,231,4.0,8.0,84,0.00,,,0.00,,2013-03-06 01:21:00,
2013-03-05 17:31:00,54.0,49.0,30.02,SW,215,4.0,10.0,84,0.00,,,0.00,,2013-03-06 01:31:00,
2013-03-05 17:41:00,54.0,49.0,30.02,SW,215,4.0,10.0,84,0.00,,,0.00,,2013-03-06 01:41:00,
2013-03-05 17:51:00,54.0,49.0,30.02,South,191,2.0,8.0,84,0.00,,,0.00,,2013-03-06 01:51:00,
2013-03-05 18:01:00,54.0,49.0,30.01,SW,230,1.0,5.0,83,0.00,,,0.00,,2013-03-06 02:01:00,
2013-03-05 18:11:00,54.0,49.0,30.01,SW,230,1.0,5.0,83,0.00,,,0.00,,2013-03-06 02:11:00,
2013-03-05 18:21:00,54.0,49.0,30.02,South,188,3.0,7.0,83,0.00,,,0.00,,2013-03-06 02:21:00,
2013-03-05 18:31:00,53.0,48.0,30.02,SW,227,1.0,5.0,83,0.00,,,0.00,,2013-03-06 02:31:00,
2013-03-05 18:41:00,53.0,48.0,30.02,SW,227,1.0,5.0,83,0.00,,,0.00,,2013-03-06 02:41:00,
2013-03-05 18:52:00,53.0,48.0,30.02,SSW,198,1.0,4.0,84,0.00,,,0.00,,2013-03-06 02:52:00,
2013-03-05 19:01:00,53.0,48.0,30.03,South,189,3.0,6.0,83,0.00,,,0.00,,2013-03-06 03:01:00,
2013-03-05 19:11:00,53.0,48.0,30.03,South,189,3.0,6.0,83,0.00,,,0.00,,2013-03-06 03:11:00,
2013-03-05 19:21:00,53.0,48.0,30.03,SW,225,2.0,5.0,83,0.00,,,0.00,,2013-03-06 03:21:00,
2013-03-05 19:31:00,53.0,48.0,30.04,SSW,193,3.0,6.0,82,0.00,,,0.00,,2013-03-06 03:31:00,
2013-03-05 19:41:00,53.0,48.0,30.04,SSW,193,3.0,6.0,82,0.00,,,0.00,,2013-03-06 03:41:00,
2013-03-05 19:52:00,53.0,48.0,30.03,SW,229,1.0,4.0,82,0.00,,,0.00,,2013-03-06 03:52:00,
2013-03-05 20:01:00,53.0,48.0,30.04,WSW,238,2.0,7.0,84,0.00,,,0.00,,2013-03-06 04:01:00,
2013-03-05 20:11:00,53.0,48.0,30.04,WSW,238,2.0,7.0,84,0.00,,,0.00,,2013-03-06 04:11:00,
2013-03-05 20:21:00,53.0,49.0,30.05,WSW,255,2.0,5.0,85,0.00,,,0.00,,2013-03-06 04:21:00,
2013-03-05 20:32:00,53.0,48.0,30.05,WSW,254,2.0,7.0,84,0.00,,,0.00,,2013-03-06 04:32:00,
2013-03-05 20:41:00,53.0,48.0,30.05,WSW,254,2.0,7.0,84,0.00,,,0.00,,2013-03-06 04:41:00,
2013-03-05 20:51:00,54.0,49.0,30.05,WNW,286,1.0,5.0,83,0.00,,,0.00,,2013-03-06 04:51:00,
2013-03-05 21:01:00,53.0,48.0,30.05,SW,228,1.0,3.0,83,0.00,,,0.00,,2013-03-06 05:01:00,
2013-03-05 21:11:00,53.0,48.0,30.05,SW,228,1.0,3.0,83,0.00,,,0.00,,2013-03-06 05:11:00,
2013-03-05 21:22:00,53.0,48.0,30.05,SW,228,1.0,3.0,83,0.00,,,0.00,,2013-03-06 05:22:00,
2013-03-05 21:32:00,53.0,48.0,30.06,South,190,0.0,4.0,84,0.00,,,0.00,,2013-03-06 05:32:00,
2013-03-05 21:42:00,53.0,48.0,30.06,South,190,0.0,4.0,84,0.00,,,0.00,,2013-03-06 05:42:00,
2013-03-05 21:52:00,53.0,49.0,30.06,SE,145,1.0,4.0,85,0.00,,,0.00,,2013-03-06 05:52:00,
2013-03-05 22:01:00,53.0,49.0,30.07,South,178,0.0,6.0,86,0.00,,,0.00,,2013-03-06 06:01:00,
2013-03-05 22:11:00,53.0,49.0,30.07,South,178,0.0,6.0,86,0.00,,,0.00,,2013-03-06 06:11:00,
2013-03-05 22:22:00,52.0,48.0,30.07,SSW,194,3.0,6.0,86,0.00,,,0.00,,2013-03-06 06:22:00,
2013-03-05 22:31:00,53.0,49.0,30.07,SW,225,1.0,4.0,86,0.00,,,0.00,,2013-03-06 06:31:00,
2013-03-05 22:41:00,53.0,49.0,30.07,SW,225,1.0,4.0,86,0.00,,,0.00,,2013-03-06 06:41:00,
2013-03-05 22:52:00,53.0,49.0,30.07,WSW,239,2.0,5.0,85,0.00,,,0.00,,2013-03-06 06:52:00,
2013-03-05 23:01:00,53.0,49.0,30.07,WSW,258,3.0,7.0,86,0.00,,,0.00,,2013-03-06 07:01:00,
2013-03-05 23:11:00,53.0,49.0,30.07,WSW,258,3.0,7.0,86,0.00,,,0.00,,2013-03-06 07:11:00,
2013-03-05 23:22:00,53.0,49.0,30.07,SSW,207,3.0,8.0,87,0.00,,,0.00,,2013-03-06 07:22:00,
2013-03-05 23:31:00,52.0,49.0,30.07,WSW,239,2.0,7.0,88,0.00,,,0.00,,2013-03-06 07:31:00,
2013-03-05 23:42:00,52.0,49.0,30.07,WSW,239,2.0,7.0,88,0.00,,,0.00,,2013-03-06 07:42:00,
2013-03-05 23:52:00,53.0,50.0,30.08,NW,307,3.0,6.0,88,0.00,,,0.00,,2013-03-06 07:52:00,